Location: Canazei
(46.4667°N, 11.7667°E)
Time: 17:56:51
(UTC+00:00)

Cosmos 1238 Rocket - Pass Details

Date: 21 April 2021
Orbit: 376 x 1020 km, 83.0° (Epoch: 12 May)

Event Time Altitude Azimuth Distance (km) Brightness Sun altitude
Rises 00:01:06 0° 354° (N) 3,607 8.0 -30.6°
Reaches altitude 10° 00:03:35 10° 358° (N) 2,717 7.2 -30.5°
Maximum altitude 00:09:54 59° 78° (ENE) 1,159 4.4 -30.2°
Enters shadow 00:10:43 55° 108° (ESE) 1,205 4.3 -30.2°
